Flood From: 18-02-2018 10:00 Until: 19-02-2018 06:00 warning for: Flood Level: Yellow info button

Although rather usual in this region, locally or potentially dangerous phenomena are expected. (such as local winds, summer thunderstorms, rising streams or high waves) Be aware and pay attention to the latest weather updates, especially if you carry out activities exposed to weather or close to a stream or shoreline. 


Meteo18 Weather Cam more information Meteo18 Weather Cam


Thunder radar more information blitzortung!


Rain radar more information rain snow radar


Visit our other weather sites:

Template documentation
and downloads

And another site



Weather Underground History page Text

Daily Summary for October 27, 2016 Units:  Metric    English   Both
« Previous Day
Next Day »
Daily Weekly Monthly Yearly Custom
  High: Low: Average:
Temperature: -17.8 °C -13.3 °C -11.9 °C
Dew Point: -17.8 °C -13.8 °C -12.9 °C
Humidity: Humidity % 71 % 89 %
Wind Speed: 0 km/h 0 km/h 7.1 km/h
Wind Gust: 0 km/h - -
Wind:- - ESE
Pressure: 0 hPa 34980.8 hPa -
Precipitation: 0 mm    
Historical Graphs
 
 
Tabular Data for October 27, 2016
Time Temperature Dew Point Pressure Wind Wind Speed Wind Gust Humidity Rainfall Rate (Hourly)
-17.8 °C -17.8 °C 0 hPa Calm     Humidity % 0 mm
00:02 -12.3 °C -12.6 °C 34980.8 hPa North 2.6 km/h 23.3 km/h 96 % 0 mm
00:07 -12.3 °C -12.6 °C 34980.8 hPa NNW 7.7 km/h 23.3 km/h 96 % 0 mm
00:17 -12.3 °C -12.6 °C 34980.8 hPa NNE 18.2 km/h 20.8 km/h 96 % 0 mm
00:22 -12.3 °C -12.6 °C 34980.8 hPa NE 15.6 km/h 20.8 km/h 96 % 0 mm
00:32 -12.3 °C -12.6 °C 34980.8 hPa NNW 5.1 km/h 18.2 km/h 96 % 0 mm
00:42 -12.3 °C -12.7 °C 34980.8 hPa NNE 5.1 km/h 18.2 km/h 96 % 0 mm
00:52 -12.3 °C -12.7 °C 34990.9 hPa NNE 12.9 km/h 15.6 km/h 96 % 0 mm
01:02 -12.3 °C -12.6 °C 34990.9 hPa NNW 2.6 km/h 15.6 km/h 96 % 0 mm
01:12 -12.3 °C -12.6 °C 34990.9 hPa Calm   15.6 km/h 96 % 0 mm
01:17 -12.3 °C -12.6 °C 34990.9 hPa Calm   15.6 km/h 96 % 0 mm
01:22 -12.3 °C -12.6 °C 34990.9 hPa North 7.7 km/h 7.7 km/h 96 % 0 mm
01:32 -12.3 °C -12.7 °C 34990.9 hPa NNW 5.1 km/h 12.9 km/h 96 % 0 mm
01:42 -12.3 °C -12.7 °C 34990.9 hPa North 5.1 km/h 12.9 km/h 96 % 0 mm
01:47 -12.3 °C -12.7 °C 34990.9 hPa NNE 5.1 km/h 12.9 km/h 96 % 0 mm
01:52 -12.3 °C -12.7 °C 34990.9 hPa Calm   10.3 km/h 96 % 0 mm
01:57 -12.3 °C -12.7 °C 34990.9 hPa Calm   10.3 km/h 96 % 0 mm
02:02 -12.3 °C -12.7 °C 34990.9 hPa North 2.6 km/h 7.7 km/h 96 % 0 mm
02:12 -12.3 °C -12.7 °C 34990.9 hPa NNW 2.6 km/h 7.7 km/h 96 % 0 mm
02:17 -12.3 °C -12.7 °C 34990.9 hPa NNE 5.1 km/h 7.7 km/h 96 % 0 mm
02:22 -12.3 °C -12.7 °C 34990.9 hPa NNW 7.7 km/h 7.7 km/h 96 % 0 mm
02:32 -12.4 °C -12.7 °C 34990.9 hPa Calm   10.3 km/h 96 % 0 mm
02:42 -12.4 °C -12.7 °C 34990.9 hPa Calm   10.3 km/h 96 % 0 mm
02:47 -12.4 °C -12.7 °C 34990.9 hPa North 2.6 km/h 7.7 km/h 96 % 0 mm
02:52 -12.4 °C -12.7 °C 34990.9 hPa Calm   7.7 km/h 96 % 0 mm
02:57 -12.4 °C -12.8 °C 34990.9 hPa Calm   5.1 km/h 96 % 0 mm
03:02 -12.4 °C -12.8 °C 34990.9 hPa Calm   5.1 km/h 96 % 0 mm
03:12 -12.4 °C -12.8 °C 34990.9 hPa Calm   5.1 km/h 96 % 0 mm
03:17 -12.4 °C -12.8 °C 34990.9 hPa Calm   2.6 km/h 96 % 0 mm
03:22 -12.4 °C -12.8 °C 34990.9 hPa Calm   2.6 km/h 96 % 0 mm
03:32 -12.4 °C -12.8 °C 34990.9 hPa NNW 2.6 km/h 5.1 km/h 96 % 0 mm
03:42 -12.4 °C -12.8 °C 34990.9 hPa North 2.6 km/h 10.3 km/h 96 % 0 mm
03:47 -12.4 °C -12.8 °C 34990.9 hPa NNW 7.7 km/h 10.3 km/h 96 % 0 mm
03:52 -12.4 °C -12.8 °C 34990.9 hPa North 5.1 km/h 10.3 km/h 96 % 0 mm
04:02 -12.4 °C -12.8 °C 34990.9 hPa North 7.7 km/h 10.3 km/h 96 % 0 mm
04:12 -12.4 °C -12.8 °C 34990.9 hPa NNE 2.6 km/h 10.3 km/h 96 % 0 mm
04:17 -12.4 °C -12.8 °C 34990.9 hPa North 7.7 km/h 10.3 km/h 96 % 0 mm
04:22 -12.4 °C -12.8 °C 34990.9 hPa NE 5.1 km/h 10.3 km/h 96 % 0 mm
04:27 -12.5 °C -12.8 °C 34990.9 hPa North 7.7 km/h 10.3 km/h 96 % 0 mm
04:32 -12.5 °C -12.8 °C 34990.9 hPa NNW 2.6 km/h 12.9 km/h 96 % 0 mm
04:37 -12.6 °C -12.9 °C 34990.9 hPa North 2.6 km/h 12.9 km/h 96 % 0 mm
04:47 -12.6 °C -12.9 °C 34990.9 hPa North 2.6 km/h 12.9 km/h 96 % 0 mm
04:52 -12.6 °C -12.8 °C 34990.9 hPa North 2.6 km/h 12.9 km/h 97 % 0 mm
04:57 -12.6 °C -12.8 °C 34990.9 hPa NNW 2.6 km/h 12.9 km/h 97 % 0 mm
05:02 -12.6 °C -12.8 °C 34990.9 hPa NNE 7.7 km/h 7.7 km/h 97 % 0 mm
05:12 -12.6 °C -12.8 °C 34990.9 hPa Calm   10.3 km/h 97 % 0 mm
05:17 -12.6 °C -12.9 °C 34990.9 hPa North 2.6 km/h 10.3 km/h 97 % 0 mm
05:22 -12.6 °C -12.8 °C 34990.9 hPa NE 7.7 km/h 7.7 km/h 97 % 0 mm
05:32 -12.6 °C -12.9 °C 34990.9 hPa East 7.7 km/h 7.7 km/h 97 % 0 mm
05:37 -12.6 °C -12.9 °C 34990.9 hPa ENE 7.7 km/h 7.7 km/h 97 % 0 mm
05:42 -12.7 °C -12.9 °C 34990.9 hPa Calm   12.9 km/h 97 % 0 mm
05:52 -12.7 °C -12.9 °C 34990.9 hPa Calm   12.9 km/h 97 % 0 mm
05:57 -12.7 °C -12.9 °C 35001.1 hPa NE 7.7 km/h 12.9 km/h 97 % 0 mm
06:07 -12.7 °C -13 °C 35001.1 hPa NE 7.7 km/h 15.6 km/h 96 % 0 mm
06:12 -12.7 °C -13 °C 35014.6 hPa NE 7.7 km/h 18.2 km/h 96 % 0 mm
06:17 -12.6 °C -12.9 °C 35014.6 hPa NE 5.1 km/h 18.2 km/h 96 % 0 mm
06:22 -12.6 °C -12.9 °C 35014.6 hPa NNE 10.3 km/h 15.6 km/h 96 % 0 mm
06:32 -12.6 °C -13.1 °C 35014.6 hPa NNW 5.1 km/h 15.6 km/h 95 % 0 mm
06:37 -12.6 °C -13.1 °C 35014.6 hPa NNE 20.8 km/h 20.8 km/h 95 % 0 mm
06:42 -12.6 °C -13.1 °C 35014.6 hPa NE 7.7 km/h 18.2 km/h 95 % 0 mm
06:47 -12.6 °C -13 °C 35014.6 hPa NNE 5.1 km/h 18.2 km/h 95 % 0 mm
06:52 -12.6 °C -13 °C 35014.6 hPa NE 5.1 km/h 20.8 km/h 95 % 0 mm
07:02 -12.6 °C -13.1 °C 35014.6 hPa NE 2.6 km/h 20.8 km/h 95 % 0 mm
07:12 -12.7 °C -13.2 °C 35014.6 hPa ENE 5.1 km/h 20.8 km/h 94 % 0 mm
07:22 -12.7 °C -13.2 °C 35014.6 hPa Calm   18.2 km/h 94 % 0 mm
07:32 -12.7 °C -13.2 °C 35014.6 hPa Calm   12.9 km/h 94 % 0 mm
07:42 -12.7 °C -13.2 °C 35014.6 hPa NE 7.7 km/h 18.2 km/h 94 % 0 mm
07:52 -12.7 °C -13.2 °C 35024.8 hPa North 2.6 km/h 15.6 km/h 94 % 0 mm
08:02 -12.7 °C -13.2 °C 35024.8 hPa NE 2.6 km/h 20.8 km/h 94 % 0 mm
08:12 -12.7 °C -13.2 °C 35024.8 hPa North 7.7 km/h 18.2 km/h 94 % 0 mm
08:17 -12.7 °C -13.2 °C 35024.8 hPa NNE 7.7 km/h 18.2 km/h 94 % 0 mm
08:22 -12.6 °C -13.1 °C 35024.8 hPa NE 2.6 km/h 23.3 km/h 94 % 0 mm
08:32 -12.6 °C -13.2 °C 35024.8 hPa NE 2.6 km/h 18.2 km/h 93 % 0 mm
08:42 -12.6 °C -13.2 °C 35038.3 hPa NNW 5.1 km/h 23.3 km/h 93 % 0 mm
08:52 -12.6 °C -13.2 °C 35038.3 hPa NE 7.7 km/h 20.8 km/h 93 % 0 mm
08:57 -12.6 °C -13.2 °C 35038.3 hPa NE 5.1 km/h 20.8 km/h 93 % 0 mm
09:02 -12.6 °C -13.2 °C 35038.3 hPa NNE 5.1 km/h 20.8 km/h 93 % 0 mm
09:12 -12.6 °C -13.2 °C 35038.3 hPa ENE 7.7 km/h 20.8 km/h 93 % 0 mm
09:17 -12.6 °C -13.2 °C 35038.3 hPa NNE 12.9 km/h 20.8 km/h 93 % 0 mm
09:22 -12.6 °C -13.2 °C 35038.3 hPa NNE 5.1 km/h 25.9 km/h 93 % 0 mm
09:32 -12.6 °C -13.2 °C 35048.5 hPa NNW 5.1 km/h 25.9 km/h 93 % 0 mm
09:42 -12.6 °C -13.2 °C 35048.5 hPa NE 10.3 km/h 18.2 km/h 93 % 0 mm
09:52 -12.6 °C -13.2 °C 35048.5 hPa NNE 15.6 km/h 18.2 km/h 93 % 0 mm
09:57 -12.6 °C -13.2 °C 35048.5 hPa NE 5.1 km/h 18.2 km/h 92 % 0 mm
10:02 -12.6 °C -13.2 °C 35058.6 hPa ENE 5.1 km/h 20.8 km/h 92 % 0 mm
10:12 -12.6 °C -13.2 °C 35058.6 hPa ENE 12.9 km/h 18.2 km/h 92 % 0 mm
10:17 -12.4 °C -13.1 °C 35058.6 hPa NE 7.7 km/h 18.2 km/h 92 % 0 mm
10:22 -12.4 °C -13.1 °C 35058.6 hPa NE 5.1 km/h 20.8 km/h 92 % 0 mm
10:32 -12.4 °C -13.1 °C 35072.2 hPa North 23.3 km/h 25.9 km/h 92 % 0 mm
10:37 -12.4 °C -13.1 °C 35072.2 hPa North 7.7 km/h 25.9 km/h 92 % 0 mm
10:42 -12.4 °C -13.2 °C 35072.2 hPa NE 12.9 km/h 25.9 km/h 91 % 0 mm
10:47 -12.4 °C -13.1 °C 35072.2 hPa NNE 7.7 km/h 25.9 km/h 92 % 0 mm
10:52 -12.4 °C -13.2 °C 35072.2 hPa NE 5.1 km/h 23.3 km/h 91 % 0 mm
10:57 -12.4 °C -13.2 °C 35072.2 hPa ENE 10.3 km/h 23.3 km/h 91 % 0 mm
11:02 -12.4 °C -13.3 °C 35072.2 hPa NE 10.3 km/h 25.9 km/h 90 % 0 mm
11:12 -12.4 °C -13.3 °C 35072.2 hPa ENE 15.6 km/h 28.5 km/h 90 % 0 mm
11:22 -12.3 °C -13.3 °C 35072.2 hPa ENE 12.9 km/h 25.9 km/h 89 % 0 mm
11:32 -12.3 °C -13.3 °C 35072.2 hPa NE 10.3 km/h 20.8 km/h 88 % 0 mm
11:42 -12.1 °C -13.2 °C 35072.2 hPa ENE 7.7 km/h 20.8 km/h 88 % 0 mm
11:52 -12.1 °C -13.2 °C 35072.2 hPa NE 7.7 km/h 23.3 km/h 87 % 0 mm
11:57 -12 °C -13.1 °C 35072.2 hPa North 7.7 km/h 23.3 km/h 88 % 0 mm
12:02 -11.9 °C -12.9 °C 35072.2 hPa NNE 10.3 km/h 25.9 km/h 88 % 0 mm
12:12 -11.6 °C -12.9 °C 35072.2 hPa NNE 7.7 km/h 23.3 km/h 85 % 0 mm
12:17 -11.6 °C -12.9 °C 35072.2 hPa NE 12.9 km/h 23.3 km/h 85 % 0 mm
12:22 -11.4 °C -12.8 °C 35072.2 hPa ENE 15.6 km/h 23.3 km/h 85 % 0 mm
12:32 -11.6 °C -13 °C 35072.2 hPa East 18.2 km/h 23.3 km/h 84 % 0 mm
12:42 -11.6 °C -13 °C 35058.6 hPa NNE 20.8 km/h 25.9 km/h 84 % 0 mm
12:47 -11.6 °C -12.9 °C 35058.6 hPa NE 7.7 km/h 25.9 km/h 85 % 0 mm
12:52 -11.4 °C -12.8 °C 35058.6 hPa NE 23.3 km/h 25.9 km/h 85 % 0 mm
12:57 -11.4 °C -13 °C 35058.6 hPa NNE 18.2 km/h 25.9 km/h 83 % 0 mm
13:02 -11.4 °C -13 °C 35058.6 hPa North 12.9 km/h 25.9 km/h 83 % 0 mm
13:12 -11.2 °C -12.8 °C 35058.6 hPa NE 7.7 km/h 33.6 km/h 83 % 0 mm
13:17 -11.2 °C -12.6 °C 35058.6 hPa ENE 10.3 km/h 33.6 km/h 84 % 0 mm
13:22 -11.1 °C -12.5 °C 35058.6 hPa ENE 5.1 km/h 23.3 km/h 84 % 0 mm
13:27 -10.9 °C -12.5 °C 35058.6 hPa NNE 15.6 km/h 23.3 km/h 83 % 0 mm
13:32 -10.9 °C -12.5 °C 35048.5 hPa NE 10.3 km/h 23.3 km/h 83 % 0 mm
13:42 -10.9 °C -12.6 °C 35048.5 hPa NNE 15.6 km/h 28.5 km/h 82 % 0 mm
13:52 -10.9 °C -12.7 °C 35048.5 hPa WNW 10.3 km/h 28.5 km/h 81 % 0 mm
13:57 -10.8 °C -12.7 °C 35048.5 hPa NE 10.3 km/h 28.5 km/h 80 % 0 mm
14:02 -10.7 °C -12.5 °C 35038.3 hPa NE 5.1 km/h 28.5 km/h 81 % 0 mm
14:12 -10.6 °C -12.5 °C 35038.3 hPa ENE 7.7 km/h 23.3 km/h 80 % 0 mm
14:17 -10.6 °C -12.5 °C 35038.3 hPa NE 12.9 km/h 23.3 km/h 80 % 0 mm
14:22 -10.7 °C -12.6 °C 35038.3 hPa North 20.8 km/h 25.9 km/h 80 % 0 mm
14:32 -10.5 °C -12.6 °C 35038.3 hPa ENE 12.9 km/h 25.9 km/h 78 % 0 mm
14:37 -10.4 °C -12.6 °C 35038.3 hPa ENE 7.7 km/h 25.9 km/h 78 % 0 mm
14:42 -10.4 °C -12.3 °C 35038.3 hPa North 10.3 km/h 25.9 km/h 80 % 0 mm
14:52 -10.4 °C -12.4 °C 35038.3 hPa NE 20.8 km/h 25.9 km/h 79 % 0 mm
15:02 -10.3 °C -12.6 °C 35024.8 hPa NE 15.6 km/h 25.9 km/h 77 % 0 mm
15:12 -10.3 °C -12.3 °C 35024.8 hPa NNE 7.7 km/h 23.3 km/h 79 % 0 mm
15:17 -10.2 °C -12.4 °C 35024.8 hPa NNE 20.8 km/h 28.5 km/h 77 % 0 mm
15:22 -10.2 °C -12.4 °C 35024.8 hPa NNE 20.8 km/h 28.5 km/h 77 % 0 mm
15:32 -10.1 °C -12.3 °C 35024.8 hPa NNE 18.2 km/h 25.9 km/h 77 % 0 mm
15:42 -10.1 °C -12.4 °C 35024.8 hPa NNE 15.6 km/h 28.5 km/h 76 % 0 mm
15:52 -10 °C -12.3 °C 35024.8 hPa ENE 12.9 km/h 28.5 km/h 76 % 0 mm
15:57 -9.9 °C -12.3 °C 35024.8 hPa NE 12.9 km/h 31.1 km/h 76 % 0 mm
16:02 -9.9 °C -12.5 °C 35024.8 hPa NE 25.9 km/h 31.1 km/h 74 % 0 mm
16:12 -9.9 °C -12.4 °C 35024.8 hPa NE 5.1 km/h 28.5 km/h 74 % 0 mm
16:17 -9.8 °C -12.4 °C 35024.8 hPa NE 25.9 km/h 28.5 km/h 74 % 0 mm
16:22 -9.9 °C -12.7 °C 35014.6 hPa NNE 10.3 km/h 28.5 km/h 72 % 0 mm
16:32 -9.8 °C -12.6 °C 35014.6 hPa NE 12.9 km/h 28.5 km/h 72 % 0 mm
16:42 -9.8 °C -12.7 °C 35024.8 hPa NE 10.3 km/h 28.5 km/h 71 % 0 mm
16:47 -9.8 °C -12.7 °C 35024.8 hPa NE 5.1 km/h 20.8 km/h 71 % 0 mm
16:52 -9.8 °C -12.6 °C 35024.8 hPa NE 15.6 km/h 20.8 km/h 72 % 0 mm
16:57 -9.8 °C -12.6 °C 35014.6 hPa NE 18.2 km/h 23.3 km/h 72 % 0 mm
17:12 -9.8 °C -12.4 °C 35014.6 hPa WNW 5.1 km/h 23.3 km/h 73 % 0 mm
17:17 -9.8 °C -12.4 °C 35014.6 hPa ENE 12.9 km/h 18.2 km/h 73 % 0 mm
17:22 -9.8 °C -12.5 °C 35014.6 hPa NE 5.1 km/h 20.8 km/h 73 % 0 mm
17:27 -9.9 °C -12.6 °C 35014.6 hPa NE 18.2 km/h 23.3 km/h 73 % 0 mm
17:32 -9.9 °C -12.4 °C 35014.6 hPa NE 10.3 km/h 23.3 km/h 74 % 0 mm
17:42 -9.9 °C -12.4 °C 35014.6 hPa NE 5.1 km/h 25.9 km/h 75 % 0 mm
17:47 -10 °C -12.4 °C 35014.6 hPa NE 7.7 km/h 23.3 km/h 75 % 0 mm
17:52 -10.1 °C -12.5 °C 35014.6 hPa NE 2.6 km/h 23.3 km/h 75 % 0 mm
17:57 -10.1 °C -12.4 °C 35014.6 hPa NNW 5.1 km/h 18.2 km/h 76 % 0 mm
18:02 -10.1 °C -12.3 °C 35014.6 hPa NE 5.1 km/h 20.8 km/h 77 % 0 mm
18:12 -10.2 °C -12.3 °C 35014.6 hPa NNE 5.1 km/h 20.8 km/h 78 % 0 mm
18:17 -10.3 °C -12.4 °C 35014.6 hPa NNE 5.1 km/h 15.6 km/h 78 % 0 mm
18:22 -10.4 °C -12.4 °C 35024.8 hPa NE 7.7 km/h 15.6 km/h 79 % 0 mm
18:27 -10.5 °C -12.4 °C 35014.6 hPa NNE 2.6 km/h 10.3 km/h 80 % 0 mm
18:32 -10.7 °C -12.4 °C 35024.8 hPa Calm   10.3 km/h 81 % 0 mm
18:42 -11 °C -12.6 °C 35014.6 hPa Calm   12.9 km/h 83 % 0 mm
18:52 -11.3 °C -12.7 °C 35024.8 hPa Calm   10.3 km/h 84 % 0 mm
19:02 -11.4 °C -12.8 °C 35024.8 hPa ENE 2.6 km/h 10.3 km/h 85 % 0 mm
19:12 -11.6 °C -12.7 °C 35038.3 hPa Calm   10.3 km/h 87 % 0 mm
19:22 -11.7 °C -12.8 °C 35038.3 hPa Calm   15.6 km/h 88 % 0 mm
19:32 -11.9 °C -12.8 °C 35038.3 hPa NE 2.6 km/h 15.6 km/h 90 % 0 mm
19:42 -12.1 °C -12.8 °C 35024.8 hPa Calm   10.3 km/h 91 % 0 mm
19:52 -12.1 °C -12.8 °C 35024.8 hPa NNW 2.6 km/h 10.3 km/h 91 % 0 mm
20:02 -12.2 °C -13 °C 35038.3 hPa North 5.1 km/h 10.3 km/h 91 % 0 mm
20:07 -12.3 °C -13.1 °C 35024.8 hPa North 2.6 km/h 10.3 km/h 91 % 0 mm
20:17 -12.5 °C -13.2 °C 35038.3 hPa NW 2.6 km/h 10.3 km/h 92 % 0 mm
20:22 -12.6 °C -13.2 °C 35038.3 hPa NE 7.7 km/h 10.3 km/h 93 % 0 mm
20:27 -12.5 °C -13.1 °C 35038.3 hPa North 5.1 km/h 12.9 km/h 93 % 0 mm
20:37 -12.4 °C -13.1 °C 35038.3 hPa NNW 5.1 km/h 15.6 km/h 93 % 0 mm
20:42 -12.4 °C -13 °C 35038.3 hPa North 10.3 km/h 15.6 km/h 93 % 0 mm
20:47 -12.4 °C -13.1 °C 35038.3 hPa NNE 10.3 km/h 20.8 km/h 92 % 0 mm
20:52 -12.4 °C -13.1 °C 35038.3 hPa North 5.1 km/h 20.8 km/h 92 % 0 mm
20:57 -12.4 °C -13.1 °C 35024.8 hPa NW 2.6 km/h 20.8 km/h 93 % 0 mm
21:02 -12.4 °C -13.1 °C 35024.8 hPa North 7.7 km/h 15.6 km/h 93 % 0 mm
21:12 -12.5 °C -13.1 °C 35038.3 hPa Calm   18.2 km/h 93 % 0 mm
21:17 -12.6 °C -13.2 °C 35038.3 hPa NNW 2.6 km/h 12.9 km/h 93 % 0 mm
21:22 -12.6 °C -13.2 °C 35038.3 hPa NNE 7.7 km/h 12.9 km/h 93 % 0 mm
21:27 -12.6 °C -13.2 °C 35038.3 hPa Calm   12.9 km/h 93 % 0 mm
21:32 -12.6 °C -13.2 °C 35038.3 hPa North 7.7 km/h 12.9 km/h 93 % 0 mm
21:42 -12.6 °C -13.2 °C 35038.3 hPa North 5.1 km/h 12.9 km/h 92 % 0 mm
21:52 -12.7 °C -13.3 °C 35038.3 hPa Calm   12.9 km/h 93 % 0 mm
22:02 -12.9 °C -13.5 °C 35038.3 hPa North 7.7 km/h 12.9 km/h 93 % 0 mm
22:07 -12.9 °C -13.5 °C 35038.3 hPa North 5.1 km/h 10.3 km/h 93 % 0 mm
22:12 -12.9 °C -13.4 °C 35038.3 hPa North 5.1 km/h 10.3 km/h 94 % 0 mm
22:22 -12.9 °C -13.4 °C 35024.8 hPa NE 12.9 km/h 15.6 km/h 94 % 0 mm
22:32 -12.9 °C -13.4 °C 35024.8 hPa NW 5.1 km/h 15.6 km/h 94 % 0 mm
22:42 -13 °C -13.5 °C 35024.8 hPa Calm   23.3 km/h 94 % 0 mm
22:47 -13.1 °C -13.6 °C 35024.8 hPa Calm   18.2 km/h 94 % 0 mm
22:52 -13.2 °C -13.7 °C 35024.8 hPa NNE 2.6 km/h 12.9 km/h 94 % 0 mm
22:57 -13.2 °C -13.7 °C 35038.3 hPa NW 2.6 km/h 7.7 km/h 94 % 0 mm
23:02 -13.2 °C -13.6 °C 35024.8 hPa NW 2.6 km/h 5.1 km/h 95 % 0 mm
23:12 -13.2 °C -13.6 °C 35038.3 hPa Calm   5.1 km/h 95 % 0 mm
23:22 -13.2 °C -13.6 °C 35038.3 hPa NNW 2.6 km/h 12.9 km/h 95 % 0 mm
23:37 -13.2 °C -13.7 °C 35038.3 hPa Calm   7.7 km/h 95 % 0 mm
23:42 -13.2 °C -13.7 °C 35038.3 hPa Calm   7.7 km/h 95 % 0 mm
23:47 -13.2 °C -13.7 °C 35038.3 hPa NW 2.6 km/h 2.6 km/h 95 % 0 mm
23:52 -13.3 °C -13.8 °C 35038.3 hPa Calm   2.6 km/h 94 % 0 mm
23:57 -13.3 °C -13.8 °C 35038.3 hPa Calm   7.7 km/h 95 % 0 mm
Meteo18
Compliments of Weather Underground - 4 mb

Script developed by  Jim McMurry - jmcmurry@mwt.net Adapted for the template by  Wim van der Kuil - Leuven-Template.eu

You find our weather info also at:

European Weather Network

Weather Underground

Equipment we use:

Weather-station
Davis Vue

Weather-program
Meteobridge

Weather-server
Raspberry PI 2 B+

Provider
1 and 1

Davis Vue

Meteobridge

Raspberry PI 2 B+

1 and 1